Amritsar, India

9:46 PM IST on August 21, 2017 (GMT +0530)
Amritsar

Weather History for VIAR - November, 2012

Change the Weather History Date:

Monday, November 12, 2012

  Actual Average Record
Temperature  
Mean Temperature 66 °F -  
Max Temperature 83 °F 79 °F 84 °F (1998)
Min Temperature 48 °F 51 °F 42 °F (2003)
Growing Degree Days 16 (Base 50)    
Moisture  
Dew Point 58 °F    
Average Humidity 76    
Maximum Humidity 100    
Minimum Humidity 35    
Precipitation  
Precipitation 0.00 in - - ()
Sea Level Pressure  
Sea Level Pressure 29.99 in    
Wind  
Wind Speed 0 mph ()    
Max Wind Speed 2 mph    
Max Gust Speed -    
Visibility 1.2 miles    
Events Fog    
Averages and records for this station are not official NWS values.
T = Trace of Precipitation, MM = Missing Value Source: Averaged Metar Reports

Daily Weather History Graph

Daily Weather History Graph

Search for Another Location

Airport or City:

Trip Planner

Search our weather history database for the weather conditions in past years. The results will help you decide how hot, cold, wet, or windy it might be!

Date:

Astronomy

Nov. 12, 2012 Rise Set
Actual Time 6:55 AM IST 5:33 PM IST
Civil Twilight 6:30 AM IST 5:58 PM IST
Nautical Twilight 6:01 AM IST 6:27 PM IST
Astronomical Twilight 5:32 AM IST 6:56 PM IST
Moon 4:53 AM IST (11/12) 4:15 PM IST (11/12)
Length of Visible Light 11h 28m
Length of Day
10h 37m
Waning Crescent, 4% of the Moon is Illuminated
Nov 12
Waning Crescent
Nov 14
New
Nov 20
First Quarter
Nov 28
Full
Dec 6
Last Quarter

Hourly Weather History & Observations

Time (IST) Temp. Heat Index Dew Point Humidity Pressure Visibility Wind Dir Wind Speed Gust Speed Precip Events Conditions
12:00 AM 62.6 °F - 59.0 °F 88% 29.95 in 1.4 mi Calm Calm - N/A   Mist
12:30 AM 62.6 °F - 59.0 °F 88% 29.95 in 1.4 mi Calm Calm - N/A   Mist
1:00 AM 62.6 °F - 59.0 °F 88% 29.95 in 1.4 mi Calm Calm - N/A   Mist
1:30 AM 62.6 °F - 59.0 °F 88% 29.95 in 1.4 mi Calm Calm - N/A   Mist
2:00 AM 62.6 °F - 59.0 °F 88% 29.95 in 1.4 mi Calm Calm - N/A   Mist
2:30 AM 57.2 °F - 57.2 °F 100% 29.95 in 1.2 mi Calm Calm - N/A   Mist
4:30 AM 53.6 °F - 53.6 °F 100% 29.95 in 1.2 mi Calm Calm - N/A   Mist
5:00 AM 51.8 °F - 51.8 °F 100% 29.95 in 1.0 mi Calm Calm - N/A   Mist
5:30 AM 50 °F - 50 °F 100% 29.96 in 1 mi Calm Calm - -   Mist
5:30 AM 51.8 °F - 51.8 °F 100% 29.95 in 1.0 mi Calm Calm - N/A   Mist
6:00 AM 50.0 °F - 50.0 °F 100% 29.95 in 0.7 mi Calm Calm - N/A   Mist
6:30 AM 50.0 °F - 50.0 °F 100% 29.95 in 0.7 mi Calm Calm - N/A   Mist
7:00 AM 48.2 °F - 48.2 °F 100% 29.98 in 0.5 mi Calm Calm - N/A Fog Fog
8:00 AM 51.8 °F - 51.8 °F 100% 30.01 in 0.4 mi Calm Calm - N/A Fog Fog
8:30 AM 53.6 °F - 53.6 °F 100% 30.01 in 0.4 mi Calm Calm - N/A Fog Fog
9:00 AM 55.4 °F - 55.4 °F 100% 30.04 in 0.6 mi Calm Calm - N/A   Mist
9:30 AM 59.0 °F - 55.4 °F 88% 30.04 in 0.8 mi Calm Calm - N/A   Mist
10:30 AM 64.4 °F - 57.2 °F 77% 30.04 in 0.9 mi Calm Calm - N/A   Mist
11:00 AM 68.0 °F - 57.2 °F 68% 30.04 in 1.2 mi Calm Calm - N/A   Haze
11:30 AM 71 °F - 58 °F 54% 30.01 in 1 mi Calm Calm - -   Haze
11:30 AM 71.6 °F - 57.2 °F 60% 30.04 in 1.6 mi Calm Calm - N/A   Haze
12:00 PM 73.4 °F - 57.2 °F 57% 30.01 in 1.6 mi Calm Calm - N/A   Haze
12:30 PM 77.0 °F - 55.4 °F 47% 30.01 in 1.9 mi Calm Calm - N/A   Smoke
1:00 PM 78.8 °F - 57.2 °F 47% 29.98 in 1.9 mi Calm Calm - N/A   Smoke
1:30 PM 78.8 °F - 57.2 °F 47% 29.98 in 1.9 mi Variable 1.2 mph - N/A   Smoke
2:00 PM 80.6 °F 80.8 °F 57.2 °F 45% 29.98 in 1.9 mi Variable 2.3 mph - N/A   Smoke
2:30 PM 81 °F - 58 °F 35% 29.94 in 1 mi 1.2 mph - -   Smoke
3:00 PM 82.4 °F 82.0 °F 57.2 °F 42% 29.95 in 1.9 mi Variable 2.3 mph - N/A   Smoke
3:30 PM 82.4 °F 82.0 °F 57.2 °F 42% 29.95 in 1.9 mi Calm Calm - N/A   Smoke
4:00 PM 82.4 °F 82.0 °F 57.2 °F 42% 29.95 in 1.9 mi Variable 2.3 mph - N/A   Smoke
4:30 PM 82.4 °F 82.0 °F 57.2 °F 42% 29.95 in 1.9 mi Variable 2.3 mph - N/A   Smoke
5:00 PM 78.8 °F - 57.2 °F 47% 29.95 in 1.2 mi Calm Calm - N/A   Smoke
5:30 PM 77 °F - 57 °F 39% 29.93 in 1 mi NW 2.3 mph - -   Smoke
5:30 PM 77.0 °F - 57.2 °F 50% 29.95 in 1.2 mi Variable 2.3 mph - N/A   Smoke
6:00 PM 75.2 °F - 60.8 °F 61% 29.95 in 1.2 mi Calm Calm - N/A   Haze
6:30 PM 73.4 °F - 64.4 °F 73% 29.98 in 1.2 mi Calm Calm - N/A   Haze
7:00 PM 71.6 °F - 64.4 °F 78% 29.98 in 1.2 mi Calm Calm - N/A   Haze
7:30 PM 69.8 °F - 64.4 °F 83% 30.01 in 1.2 mi Calm Calm - N/A   Mist
8:00 PM 68.0 °F - 64.4 °F 88% 30.01 in 1.2 mi Calm Calm - N/A   Mist
8:30 PM 68.0 °F - 62.6 °F 83% 30.01 in 1.2 mi Calm Calm - N/A   Mist
9:00 PM 66.2 °F - 62.6 °F 88% 30.01 in 0.9 mi Calm Calm - N/A   Mist
9:30 PM 66.2 °F - 62.6 °F 88% 30.01 in 0.9 mi Calm Calm - N/A   Mist
10:00 PM 66.2 °F - 62.6 °F 88% 30.04 in 0.9 mi Calm Calm - N/A   Mist
10:30 PM 64.4 °F - 60.8 °F 88% 30.04 in 0.9 mi Calm Calm - N/A   Mist
11:00 PM 64.4 °F - 60.8 °F 88% 30.04 in 0.9 mi Calm Calm - N/A   Mist
11:30 PM 62 °F - 60 °F 90% 30.03 in 1 mi Calm Calm - -   Mist
11:30 PM 60.8 °F - 59.0 °F 94% 30.04 in 0.9 mi Calm Calm - N/A   Mist